767  
ASUS41 KAKQ 230514  
RWRAKQ  
 
REGIONAL WEATHER ROUNDUP  
NATIONAL WEATHER SERVICE WAKEFIELD VA  
1200 AM EST THU JAN 23 2020  
 
NOTE: "FAIR" INDICATES FEW OR NO CLOUDS BELOW 12,000 FEET WITH NO  
SIGNIFICANT WEATHER AND/OR S TO VISIBILITY
. * = DENOTES  
STATION MAY NOT REPORT PRECIPITATION (E.G., RAIN,SNOW,ETC.),
 
THUNDER OR FOG.  
 
VAZ042-051-052>054-056-230600-  
NORTHERN VIRGINIA  
 
CITY SKY/WX TMP DP RH WIND PRES REMARKS
 
WASH NATIONAL FAIR 32 21 64 CALM 30.46F  
DULLES FAIR 22 15 75 CALM 30.44F  
FORT BELVOIR FAIR 24 18 78 CALM 30.46S  
QUANTICO FAIR 26 21 81 W7 30.48S  
FREDERICKSBRG* FAIR 24 21 87 CALM 30.46S  
STAFFORD* FAIR 23 19 86 CALM 30.49F  
WARRENTON FAIR 21 15 78 CALM 30.44S  
CULPEPER* FAIR 20 16 84 CALM 30.46S  
MANASSAS* FAIR 20 17 88 CALM 30.46S  
LEESBURG* FAIR 25 19 80 CALM 30.45S  
WINCHESTER FAIR 21 14 73 CALM 30.38F  
FRONT ROYAL* FAIR 21 16 79 CALM 30.39S  
LURAY* FAIR 23 18 80 CALM 30.40S  

 
 
VAZ048-049-060>072-079>083-230600-  
CENTRAL AND SOUTH CENTRAL VIRGINIA  
 
CITY SKY/WX TMP DP RH WIND PRES REMARKS
 
RICHMOND FAIR 28 20 71 CALM 30.44S  
CHESTERFIELD* FAIR 22 18 85 NW3 30.44F  
PETERSBURG* FAIR 21 18 86 CALM 30.46S  
HANOVER FAIR 24 17 74 CALM 30.46S  
TAPPAHANNOCK* FAIR 24 24 99 CALM 30.46S  
QUINTON* FAIR 25 20 82 CALM 30.45S  
CHARLOTTSVILLE FAIR 29 14 53 CALM 30.43S  
GORDONSVILLE* FAIR 22 19 86 CALM 30.44S  
ORANGE* FAIR 23 18 80 CALM 30.44S  
LOUISA* FAIR 21 15 79 CALM 30.48S  
BUMPASS* FAIR 24 14 68 CALM 30.44F  
FARMVILLE* FAIR 22 16 78 CALM 30.43S  
CREWE* FAIR 22 15 75 CALM 30.43F  
FORT PICKETT* FAIR 28 18 68 CALM 30.43F  
CHASE CITY* FAIR 25 18 76 CALM 30.42F  
CLARKSVILLE* FAIR 28 21 74 CALM 30.42F  
SOUTH HILL* FAIR 25 19 76 CALM 30.48F  
LAWRENCEVILLE* FAIR 28 20 71 CALM 30.43S  
EMPORIA* FAIR 23 20 89 CALM 30.45F  

 
 
VAZ088>098-230600-  
SOUTHEAST VIRGINIA  
 
CITY SKY/WX TMP DP RH WIND PRES REMARKS
 
NORFOLK FAIR 38 31 76 NE7 30.39F  
VIRGINIA BEACH FAIR 36 31 82 NE6 30.38F  
NORFOLK NAVAL FAIR 37 30 75 NE5 30.41F  
WEST POINT* FAIR 26 23 89 CALM 30.47R  
SALUDA* FAIR 26 26 99 CALM 30.44S  
NEWPORT NEWS FAIR 27 21 78 CALM 30.42F  
LANGLEY AFB FAIR 30 28 92 N5 30.42F  
FORT EUSTIS FAIR 29 22 77 CALM 30.41F  
WILLIAMSBURG* NOT AVBL  
HR EXEC AP* FAIR 22 20 92 N3 30.41F  
FRANKLIN* FAIR 25 24 98 NW3 30.43S  
US460-WAKEFLD FAIR 27 22 81 CALM 30.43S  

 
 
VAZ020-022-025-037-045-230600-  
WEST CENTRAL AND SOUTHWEST VIRGINIA  
 
CITY SKY/WX TMP DP RH WIND PRES REMARKS
 
STAUNTON* FAIR 17 13 82 CALM 30.41S  
WAYNESBORO* FAIR 25 11 55 CALM 30.38R  
HOT SPRINGS VA FAIR 32 1 27 CALM 30.27F  
LYNCHBURG FAIR 23 16 74 CALM 30.42S  
DANVILLE FAIR 25 16 68 CALM 30.41F  
SOUTH BOSTON* FAIR 24 16 72 CALM 30.43S  
MARTINSVILLE FAIR 21 16 81 CALM 30.43S  
ROANOKE FAIR 27 15 61 CALM 30.41F  
BLACKSBURG FAIR 26 14 59 CALM 30.38R  
DUBLIN* FAIR 25 18 74 CALM 30.36S  
MARION* FAIR 30 19 62 E6 30.33F  
HILLSVILLE* FAIR 29 10 46 S7 30.30S  
RICHLANDS* FAIR 38 2 22 SE6 30.24F  
WISE* FAIR 37 10 32 W3 30.24S  
ABINGDON* NOT AVBL  

 
 
MDZ021>025-VAZ099-100-230600-  
SOUTHERN MARYLAND AND THE DELMARVA PENINSULA  
 
CITY SKY/WX TMP DP RH WIND PRES REMARKS
 
PATUXENT RIVER FAIR 28 23 81 VRB3 30.45S  
BAY BRIDGE APT FAIR 27 21 80 CALM 30.46R  
LEONARDTOWN N/A 27 21 80 CALM 30.47R  
DOVER FAIR 26 20 80 CALM 30.44S  
GEORGETOWN NOT AVBL  
EASTON FAIR 26 20 80 CALM 30.49R  
CAMBRIDGE N/A 25 19 80 CALM 30.46R  
SALISBURY FAIR 25 19 78 CALM 30.43F  
TANGIER NOT AVBL  
OCEAN CITY FAIR 25 21 85 NW5 30.44F  
WALLOPS ISLAND NOT AVBL  
ACCOMACK* NOT AVBL  

 
 
NCZ012>017-030>032-230600-  
NORTH CENTRAL AND EASTERN NORTH CAROLINA  
 
CITY SKY/WX TMP DP RH WIND PRES REMARKS
 
ROANOKE RAPIDS FAIR 27 27 100 CALM 30.42F  
RALEIGH FAIR 29 18 63 CALM 30.40F  
ELIZABETH CITY FAIR 36 31 82 N9 30.39F  
AHOSKIE* FAIR 27 26 94 NW3 30.42S  
EDENTON* FAIR 33 31 94 N3 30.39F  
CURRITUCK* FAIR 37 35 92 N5 30.38F  
KILL DEVIL HLS FAIR 43 37 79 NE9 30.35F  
MANTEO FAIR 43 37 80 NE13 30.36F  
CAPE HATTERAS FAIR 46 41 82 N10G21 30.32F  
TARBORO* FAIR 29 25 84 N5 30.41F  
GOLDSBORO FAIR 34 26 74 N6 30.37F  
WASHINGTON FAIR 32 28 86 CALM 30.38F  
GREENVILLE FAIR 30 27 86 CALM 30.39F  
NEW BERN FAIR 34 30 85 N6 30.36F  
WILMINGTON FAIR 37 30 75 N9 30.34F  

 
 
VAZ048-230600-  
ELSEWHERE  
 
CITY SKY/WX TMP DP RH WIND PRES REMARKS
 
HARRISBURG PA FAIR 23 17 78 CALM 30.42F  
BALTIMORE FAIR 25 18 74 W5 30.45S  
ANNAPOLIS FAIR 27 23 85 CALM 30.45R  
ANDREWS AFB FAIR 24 19 79 CALM 30.44R  
PHILADELPHIA MOCLDY 29 21 72 CALM 30.45S  
HENDERSON NC FAIR 24 17 73 CALM 30.41F  
GREENSBORO MOCLDY 29 16 58 NE3 30.37F  
ROCKY MOUNT FAIR 29 24 82 NE5 30.40F  

 
 
VAZ100-230600-  
MARINE  
 
STATION/POSITION TIME TEMP WIND PRES WAVE SWELL
 
AIR SEA DIR/SP/G HT/PER HT/PER  
(UTC) (F) (DEG/KT/KT) (MB) (FT/S) (FT/S)  

 
 
 
CLICK HERE TO GO TO PREVIOUS BULLETINS.

The Nexlab VA Page
The Nexlab NC Page
The Nexlab MD Page Main Text Page